Retour au catalogue

STARLINK-36399

ActifCommunicationsSSO
NORAD 67665·PAYLOAD·🇺🇸 United States

Lancé Feb 2, 2026 depuis Vandenberg Space Force Base

Loading…

Prochains Passages (prochaines 24 heures)

TLE

FraisSource: CelesTrak SupGP

Époque: Sep 15, 2026, 02:35 UTC

1 67665C 26022T   26258.10812500  .00014627  00000+0  45428-3 0  2585
2 67665  97.2837 289.6881 0001093 106.9622   5.2809 15.33416072    16

Suivez STARLINK-36399 en temps réel avec AllMySat

Download on the App Store